Skip Page Navigation
NASA JPL Caltech
NASA Logo - Jet Propulsion Laboratory + View the NASA Portal
+ Center for Near-Earth Object Studies
JPL Home Earth Solar System Stars & Galaxies Technology
JPL Solar System Dynamics
BODIES ORBITS EPHEMERIDES TOOLS PHYSICAL DATA DISCOVERY FAQ SITE MAP
IMPORTANT: The SSD Announcement email list is now available. Major changes are coming in the near future, including possible hostname and/or URL changes. To be notified of such changes, subscribe to this email list.

Please visit this page for more details.


JPL Small-Body Database Browser
Search: [ help ]  
80753 (2000 CO49)
Classification: Main-belt Asteroid          SPK-ID: 2080753
Ephemeris | Orbit Diagram | Orbital Elements | Mission Design | Physical Parameters | Discovery Circumstances | Close-Approach Data ]

[ show orbit diagram ]
Orbital Elements at Epoch 2459000.5 (2020-May-31.0) TDB
Reference: JPL 16 (heliocentric ecliptic J2000)
 Element Value Uncertainty (1-sigma)   Units 
e .1486415532424127 5.7682e-08  
a 2.400890419452429 1.1029e-08 au
q 2.044018338340192 1.3939e-07 au
i 3.026295633364909 6.2581e-06 deg
node 221.3554408903671 9.4482e-05 deg
peri 347.1924919752341 9.5856e-05 deg
M 119.314999740647 1.5808e-05 deg
tp 2458550.150713889255
(2019-Mar-07.65071389)
5.9e-05 TDB
period 1358.804369545138
3.72
9.3626e-06
2.563e-08
d
yr
n .2649388006608417 1.8255e-09 deg/d
Q 2.757762500564666 1.2668e-08 au
  Orbit Determination Parameters
   # obs. used (total)      561  
   data-arc span      7486 days (20.50 yr)  
   first obs. used      1998-11-14  
   last obs. used      2019-05-14  
   planetary ephem.      DE431  
   SB-pert. ephem.      SB431-N16  
   condition code      0  
   norm. resid. RMS      .5716  
   source      ORB  
   producer      Otto Matic  
   solution date      2019-May-30 05:50:13  

Additional Information
 Earth MOID = 1.0391 au 
 Jupiter MOID = 2.20713 au 
 T_jup = 3.509 
[ show covariance matrix ]

Ephemeris | Orbit Diagram | Orbital Elements | Mission Design | Physical Parameters | Discovery Circumstances | Close-Approach Data ]

Physical Parameter Table
Parameter Symbol Value Units Sigma Reference Notes
absolute magnitude H 15.9   n/a MPO474699  

80753 (2000 CO49)          Discovered 2000-Feb-02 by LINEAR at Socorro
Reference: 20040504/Numbers.arcLast Updated: 2004-07-16

[ hide close-approach data ]
Close-Approach Data   ...sorted by Date/Time (TDB)
Date/Time (TDB) Time Uncertainty
(days_HH:MM)
Body Nominal Distance (au) Minimum Distance (au) Maximum Distance (au) V-relative (km/s) V-infinity (km/s) JD (TDB) Time Uncertainty (minutes) Semi-major axis (km) Semi-minor axis (km) range-LOV angle (deg) N-sigma BP Orbit Ref. Reference Modified
1967-Dec-09 21:43 < 00:01 Eunom 0.0432084871466901 0.0432027593732799 0.0432142158756887 7.41872731205664 7.41872726826457 2439834.404836101 0.360748943339608 433.718577587843 54.9574733232576 49.3555001154659 89740.552639859 T 16 CATAB v2.0e-lin.ifort 2019-May-30 05:50:16 2019-May-30 05:50
2064-Aug-22 20:19 00:02 Thisb 0.0462699531048767 0.0462634623320354 0.0462764463508082 4.04292021624231 4.04292017979373 2475155.346309818 2.33701336172759 630.853466083034 57.0838020006776 59.5467829976803 104619.457870309 T 16 CATAB v2.0e-lin.ifort 2019-May-30 05:50:16 2019-May-30 05:50
2101-Nov-27 18:26 00:02 Iris 0.045842258832282 0.0458310278328794 0.0458534959744853 7.1625997945803 7.16259977707231 2488765.268258146 1.60788457974013 1010.92910092248 60.6669520178733 -56.5117599652932 94333.5996505311 T 16 CATAB v2.0e-lin.ifort 2019-May-30 05:50:16 2019-May-30 05:50

Alternate Designations
 2000 CO49 = 2001 QY5 
Ephemeris | Orbit Diagram | Orbital Elements | Mission Design | Physical Parameters | Discovery Circumstances | Close-Approach Data ]
ABOUT SSD CREDITS/AWARDS PRIVACY/COPYRIGHT GLOSSARY LINKS
FirstGov 2020-Feb-19 13:22 UT
(server date/time)  
NASA Home Page
Site Manager:   Ryan S. Park
Webmaster  Alan B. Chamberlin